• In Uzbekistan
  • List of Countries
  • For 7 days
  • Water Temperature
  • Satellite Maps
  • Weather Map
  • Weather Widgets
  • user-avatar
    Login

    Hourly Weather São Paulo

    Today, 21 April, Sunday

    Time Temperature Precipitation Wind Pressure Humidity
    00:00 +23°C° 0 mm 1 mps 698 mmHg 69%
    01:00 +23°C° 0 mm 1 mps 698 mmHg 71%
    02:00 +22°C° 0 mm 1 mps 698 mmHg 72%
    03:00 +22°C° 0 mm 1 mps 698 mmHg 73%
    04:00 +22°C° 0 mm 1 mps 698 mmHg 74%
    05:00 +22°C° 0 mm 1 mps 698 mmHg 75%
    06:00 +22°C° 0 mm 1 mps 698 mmHg 76%
    07:00 +23°C° 0 mm 1 mps 698 mmHg 70%
    08:00 +25°C° 0 mm 1 mps 699 mmHg 65%
    09:00 +26°C° 0 mm 2 mps 699 mmHg 59%
    10:00 +28°C° 0 mm 2 mps 699 mmHg 54%
    11:00 +29°C° 0 mm 2 mps 700 mmHg 48%
    12:00 +31°C° 0 mm 2 mps 700 mmHg 43%
    13:00 +31°C° 0 mm 2 mps 699 mmHg 43%
    14:00 +31°C° 0 mm 2 mps 698 mmHg 44%
    15:00 +31°C° 0 mm 2 mps 698 mmHg 45%
    16:00 +30°C° 0.1 mm 1 mps 698 mmHg 50%
    17:00 +28°C° 0.1 mm 1 mps 698 mmHg 56%
    18:00 +27°C° 0.1 mm 1 mps 698 mmHg 62%
    19:00 +26°C° 0.5 mm 1 mps 698 mmHg 65%
    20:00 +25°C° 0.5 mm 1 mps 698 mmHg 68%
    21:00 +23°C° 0.5 mm 0 mps 699 mmHg 72%
    22:00 +22°C° 0.1 mm 0 mps 699 mmHg 73%
    23:00 +22°C° 0.1 mm 0 mps 699 mmHg 74%

    Tomorrow, 22 April, Monday

    Time Temperature Precipitation Wind Pressure Humidity
    00:00 +22°C° 0.1 mm 0 mps 699 mmHg 75%
    01:00 +22°C° 0 mm 0 mps 698 mmHg 76%
    02:00 +23°C° 0 mm 1 mps 698 mmHg 77%
    03:00 +23°C° 0 mm 1 mps 697 mmHg 78%
    04:00 +23°C° 0 mm 1 mps 697 mmHg 78%
    05:00 +23°C° 0 mm 1 mps 697 mmHg 79%
    06:00 +22°C° 0 mm 1 mps 697 mmHg 79%
    07:00 +24°C° 0 mm 1 mps 698 mmHg 75%
    08:00 +25°C° 0 mm 1 mps 699 mmHg 70%
    09:00 +26°C° 0 mm 1 mps 700 mmHg 65%
    10:00 +28°C° 0 mm 1 mps 700 mmHg 59%
    11:00 +29°C° 0 mm 1 mps 700 mmHg 53%
    12:00 +31°C° 0 mm 1 mps 700 mmHg 47%
    13:00 +30°C° 0.9 mm 1 mps 699 mmHg 50%
    14:00 +30°C° 0.9 mm 1 mps 699 mmHg 52%
    15:00 +29°C° 0.9 mm 1 mps 698 mmHg 54%
    16:00 +28°C° 2.1 mm 2 mps 698 mmHg 62%
    17:00 +26°C° 2.1 mm 3 mps 698 mmHg 69%
    18:00 +25°C° 2.1 mm 3 mps 698 mmHg 76%
    19:00 +24°C° 0.3 mm 3 mps 699 mmHg 80%
    20:00 +22°C° 0.3 mm 3 mps 699 mmHg 84%
    21:00 +22°C° 0.3 mm 3 mps 700 mmHg 87%
    22:00 +23°C° 0 mm 2 mps 700 mmHg 87%
    23:00 +23°C° 0 mm 2 mps 700 mmHg 86%

    Day after tomorrow, 23 April, Tuesday

    Time Temperature Precipitation Wind Pressure Humidity
    00:00 +23°C° 0 mm 2 mps 700 mmHg 86%
    01:00 +23°C° 0 mm 2 mps 699 mmHg 85%
    02:00 +21°C° 0 mm 2 mps 699 mmHg 85%
    03:00 +22°C° 0 mm 1 mps 699 mmHg 84%
    04:00 +22°C° 0 mm 1 mps 699 mmHg 85%
    05:00 +22°C° 0 mm 1 mps 699 mmHg 85%
    06:00 +22°C° 0 mm 1 mps 699 mmHg 86%
    07:00 +22°C° 0 mm 1 mps 700 mmHg 82%
    08:00 +23°C° 0 mm 1 mps 700 mmHg 78%
    09:00 +24°C° 0 mm 2 mps 701 mmHg 74%
    10:00 +26°C° 0 mm 1 mps 701 mmHg 67%
    11:00 +28°C° 0 mm 1 mps 701 mmHg 59%
    12:00 +29°C° 0 mm 1 mps 701 mmHg 52%
    13:00 +29°C° 0.1 mm 1 mps 701 mmHg 54%
    14:00 +29°C° 0.1 mm 2 mps 700 mmHg 56%
    15:00 +29°C° 0.1 mm 2 mps 700 mmHg 58%
    16:00 +27°C° 0.2 mm 3 mps 699 mmHg 65%
    17:00 +26°C° 0.2 mm 3 mps 699 mmHg 73%
    18:00 +24°C° 0.2 mm 3 mps 699 mmHg 81%
    19:00 +24°C° 0 mm 3 mps 700 mmHg 83%
    20:00 +22°C° 0 mm 3 mps 700 mmHg 84%
    21:00 +22°C° 0 mm 3 mps 701 mmHg 86%
    22:00 +23°C° 0 mm 2 mps 701 mmHg 86%
    23:00 +23°C° 0 mm 2 mps 701 mmHg 85%

    24 April, Wednesday

    Time Temperature Precipitation Wind Pressure Humidity
    00:00 +21°C° 0 mm 2 mps 701 mmHg 85%
    01:00 +21°C° 0 mm 2 mps 700 mmHg 86%
    02:00 +22°C° 0 mm 1 mps 700 mmHg 86%
    03:00 +22°C° 0 mm 1 mps 700 mmHg 86%
    04:00 +21°C° 0 mm 1 mps 700 mmHg 87%
    05:00 +21°C° 0 mm 1 mps 700 mmHg 87%
    06:00 +21°C° 0 mm 1 mps 700 mmHg 88%
    07:00 +22°C° 0 mm 1 mps 701 mmHg 83%
    08:00 +23°C° 0 mm 1 mps 702 mmHg 79%
    09:00 +24°C° 0 mm 2 mps 702 mmHg 74%
    10:00 +26°C° 0 mm 1 mps 702 mmHg 67%
    11:00 +28°C° 0 mm 1 mps 702 mmHg 59%
    12:00 +30°C° 0 mm 1 mps 702 mmHg 52%
    13:00 +30°C° 0 mm 1 mps 702 mmHg 54%
    14:00 +29°C° 0 mm 2 mps 701 mmHg 55%
    15:00 +29°C° 0 mm 2 mps 701 mmHg 57%
    16:00 +28°C° 0 mm 3 mps 700 mmHg 65%
    17:00 +26°C° 0 mm 3 mps 700 mmHg 73%
    18:00 +25°C° 0 mm 3 mps 700 mmHg 81%
    19:00 +24°C° 0 mm 3 mps 701 mmHg 82%
    20:00 +24°C° 0 mm 3 mps 701 mmHg 84%
    21:00 +23°C° 0 mm 2 mps 701 mmHg 85%
    22:00 +23°C° 0 mm 2 mps 701 mmHg 86%
    23:00 +23°C° 0 mm 2 mps 702 mmHg 86%

    25 April, Thursday

    Time Temperature Precipitation Wind Pressure Humidity
    00:00 +23°C° 0 mm 2 mps 702 mmHg 86%
    01:00 +21°C° 0 mm 2 mps 701 mmHg 87%
    02:00 +22°C° 0 mm 1 mps 701 mmHg 87%
    03:00 +22°C° 0 mm 1 mps 701 mmHg 87%
    04:00 +22°C° 0 mm 1 mps 701 mmHg 88%
    05:00 +22°C° 0 mm 1 mps 701 mmHg 88%
    06:00 +22°C° 0 mm 1 mps 701 mmHg 88%
    07:00 +23°C° 0 mm 1 mps 701 mmHg 84%
    08:00 +24°C° 0 mm 1 mps 702 mmHg 79%
    09:00 +24°C° 0 mm 1 mps 702 mmHg 75%
    10:00 +26°C° 0 mm 1 mps 703 mmHg 68%
    11:00 +28°C° 0 mm 1 mps 703 mmHg 61%
    12:00 +30°C° 0 mm 1 mps 703 mmHg 55%
    13:00 +30°C° 0.2 mm 1 mps 702 mmHg 57%
    14:00 +29°C° 0.2 mm 1 mps 702 mmHg 59%
    15:00 +29°C° 0.2 mm 2 mps 701 mmHg 61%
    16:00 +28°C° 0.2 mm 2 mps 701 mmHg 67%
    17:00 +26°C° 0.2 mm 2 mps 701 mmHg 73%
    18:00 +25°C° 0.2 mm 3 mps 701 mmHg 80%
    19:00 +25°C° 0 mm 2 mps 701 mmHg 81%
    20:00 +24°C° 0 mm 2 mps 701 mmHg 83%
    21:00 +24°C° 0 mm 1 mps 701 mmHg 84%
    22:00 +23°C° 0 mm 1 mps 701 mmHg 85%
    23:00 +23°C° 0 mm 1 mps 701 mmHg 85%

    26 April, Friday

    Time Temperature Precipitation Wind Pressure Humidity
    00:00 +23°C° 0 mm 1 mps 701 mmHg 85%
    01:00 +23°C° 0 mm 1 mps 701 mmHg 86%
    02:00 +22°C° 0 mm 1 mps 701 mmHg 87%
    03:00 +22°C° 0 mm 1 mps 700 mmHg 88%
    04:00 +20°C° 0 mm 0 mps 701 mmHg 87%
    05:00 +20°C° 0 mm 0 mps 701 mmHg 87%
    06:00 +20°C° 0 mm 0 mps 701 mmHg 87%
    07:00 +21°C° 0 mm 0 mps 701 mmHg 81%
    08:00 +23°C° 0 mm 0 mps 702 mmHg 75%
    09:00 +24°C° 0 mm 0 mps 702 mmHg 69%
    10:00 +28°C° 0 mm 1 mps 702 mmHg 63%
    11:00 +29°C° 0 mm 1 mps 702 mmHg 56%
    12:00 +31°C° 0 mm 1 mps 702 mmHg 49%
    13:00 +31°C° 0 mm 1 mps 701 mmHg 50%
    14:00 +31°C° 0 mm 1 mps 701 mmHg 50%
    15:00 +30°C° 0 mm 2 mps 700 mmHg 51%
    16:00 +29°C° 0.1 mm 2 mps 700 mmHg 60%
    17:00 +27°C° 0.1 mm 2 mps 700 mmHg 68%
    18:00 +26°C° 0.1 mm 3 mps 699 mmHg 76%
    19:00 +25°C° 0 mm 2 mps 700 mmHg 79%
    20:00 +24°C° 0 mm 2 mps 700 mmHg 83%
    21:00 +24°C° 0 mm 2 mps 700 mmHg 86%
    22:00 +24°C° 0 mm 1 mps 700 mmHg 86%
    23:00 +23°C° 0 mm 1 mps 700 mmHg 87%
    Show more